This demonstration page uses our WeatherBlox Daily Observations layout. Learn more.

Left ArrowRight Arrow

39.01783, -85.05884

Hourly Observations for July 13, 2021

Temp ( °F °C ) Dew Point ( °F °C ) Humidity (%) Winds ( mph kmh ) Pressure ( in mb ) Visibility ( mi km ) Precip ( " mm )
12:52 am 00:52 Cloudy 73 22.8 69 20.6 87 87 S 10 17 30.05 1018 10 16 0.00 0.00
1:52 am 01:52 Mostly Cloudy 72 22.2 69 20.6 91 91 S 9 15 30.05 1018 10 16 0.04 1.02
2:52 am 02:52 Cloudy 72 22.2 68 20 87 87 SSW 8 13 30.04 1017 10 16 0.00 0.00
3:52 am 03:52 Cloudy 72 22.2 68 20 87 87 S 8 13 30.03 1017 10 16 0.00 0.00
3:55 am 03:55 Cloudy 72 22.2 68 20 87 87 S 8 13 30.04 1017 10 16 0.00 0.00
4:52 am 04:52 Cloudy 72 22.2 68 20 87 87 SSW 7 11 30.03 1017 10 16 0.00 0.00
5:52 am 05:52 Cloudy 71 21.7 68 20 90 90 S 7 11 30.04 1017 10 16 0.00 0.00
6:04 am 06:04 Cloudy with Light Rain 71 21.7 68 20 90 90 S 6 9 30.05 1018 10 16 0.00 0.00
6:24 am 06:24 Cloudy 71 21.7 68 20 90 90 S 8 13 30.05 1018 10 16 0.00 0.00
6:52 am 06:52 Cloudy with Light Rain 71 21.7 68 20 90 90 S 6 9 30.07 1018 6 10 0.01 0.25
7:04 am 07:04 Cloudy with Light Rain 71 21.7 68 20 90 90 S 8 13 30.07 1018 7 11 0.00 0.00
7:32 am 07:32 Cloudy 71 21.7 68 20 90 90 SSW 6 9 30.08 1019 8 13 0.00 0.00
7:52 am 07:52 Cloudy 71 21.7 68 20 90 90 S 6 9 30.09 1019 8 13 0.00 0.00
8:09 am 08:09 Cloudy 72 22.2 68 20 87 87 S 7 11 30.09 1019 10 16 0.00 0.00
8:34 am 08:34 Cloudy with Light Rain 72 22.2 68 20 87 87 S 7 11 30.10 1019 10 16 0.00 0.00
8:52 am 08:52 Cloudy 72 22.2 69 20.6 91 91 S 10 17 30.10 1019 10 16 0.00 0.00
9:18 am 09:18 Cloudy with Light Rain 72 22.2 69 20.6 91 91 S 10 17 30.10 1019 7 11 0.00 0.00
9:52 am 09:52 Cloudy 73 22.8 69 20.6 87 87 S 12 19 30.10 1019 10 16 0.00 0.00
10:34 am 10:34 Mostly Cloudy with Light Rain 75 23.9 69 20.6 82 82 SSW 12 19 30.10 1019 8 13 0.00 0.00
10:40 am 10:40 Mostly Cloudy with Light Rain 76 24.4 70 21.1 82 82 SSW 12 19 30.09 1019 10 16 0.00 0.00
10:52 am 10:52 Mostly Cloudy 78 25.6 70 21.1 76 76 SSW 13 20 30.10 1019 10 16 0.00 0.00
11:02 am 11:02 Mostly Cloudy 76 24.4 69 20.6 79 79 SSW 9 15 30.09 1019 10 16 0.00 0.00
11:33 am 11:33 Mostly Cloudy 78 25.6 68 20 71 71 SSW 14 22 30.08 1019 10 16 0.00 0.00
11:52 am 11:52 Cloudy 78 25.6 68 20 71 71 SSW 10 17 30.09 1019 10 16 0.00 0.00
12:52 pm 12:52 Mostly Cloudy 79 26.1 68 20 69 69 SSW 12 19 30.08 1019 10 16 0.01 0.25
1:52 pm 13:52 Mostly Cloudy 78 25.6 67 19.4 69 69 SSW 9 15 30.08 1019 10 16 0.00 0.00
2:01 pm 14:01 Mostly Cloudy with Nearby Thunderstorms 78 25.6 67 19.4 69 69 SSW 10 17 30.07 1018 10 16 0.00 0.00
2:16 pm 14:16 Mostly Cloudy 79 26.1 70 21.1 74 74 S 15 24 30.07 1018 10 16 0.00 0.00
2:52 pm 14:52 Mostly Cloudy 80 26.7 69 20.6 69 69 S 15 24 30.07 1018 10 16 0.00 0.00
3:52 pm 15:52 Mostly Cloudy 80 26.7 68 20 67 67 SW 13 20 30.07 1018 10 16 0.00 0.00
4:16 pm 16:16 Mostly Cloudy with Thunderstorms 82 27.8 70 21.1 67 67 SSW 15 24 30.05 1018 10 16 0.00 0.00
4:30 pm 16:30 Mostly Cloudy with Thunderstorms 75 23.9 69 20.6 82 82 SW 13 20 30.08 1018 4 6 0.00 0.00
4:52 pm 16:52 Mostly Cloudy with Thunderstorms 74 23.3 68 20 82 82 S 12 19 30.09 1019 8 13 0.18 4.57
5:11 pm 17:11 Mostly Cloudy with Nearby Thunderstorms 76 24.4 69 20.6 79 79 S 13 20 30.07 1018 10 16 0.00 0.00
5:32 pm 17:32 Partly Cloudy 76 24.4 69 20.6 79 79 SSW 12 19 30.07 1018 10 16 0.00 0.00
5:52 pm 17:52 Mostly Cloudy 74 23.3 68 20 82 82 SSW 13 20 30.10 1019 10 16 0.00 0.00
5:59 pm 17:59 Mostly Cloudy with Nearby Thunderstorms 74 23.3 69 20.6 85 85 SSW 10 17 30.09 1019 10 16 0.00 0.00
6:29 pm 18:29 Mostly Cloudy with Light Rain 74 23.3 69 20.6 85 85 S 10 17 30.09 1019 10 16 0.00 0.00
6:52 pm 18:52 Mostly Cloudy 75 23.9 69 20.6 82 82 SW 7 11 30.09 1019 10 16 0.00 0.00
7:52 pm 19:52 Mostly Cloudy 73 22.8 67 19.4 81 81 SW 6 9 30.11 1020 10 16 0.00 0.00
8:52 pm 20:52 Partly Cloudy 73 22.8 68 20 84 84 SSW 5 7 30.10 1019 10 16 0.00 0.00
9:52 pm 21:52 Mostly Clear 71 21.7 68 20 90 90 SW 5 7 30.11 1020 10 16 0.00 0.00
10:52 pm 22:52 Mostly Cloudy 70 21.1 67 19.4 90 90 SSW 7 11 30.14 1021 10 16 0.00 0.00
11:52 pm 23:52 Partly Cloudy 69 20.6 66 18.9 90 90 SSW 7 11 30.14 1021 10 16 0.00 0.00

Powered by AerisWeather